Home > Weather > Milan > Past weeks

Flag for Italy Past Weather in Milan, Italy — Yesterday and Last 2 Weeks

Now
86 °F

Passing clouds.


Feels Like: 85 °F
Forecast: 71 / 84 °F
Wind: 5 mph from South

Location: Milan / Linate

Current Time: Jun 29, 2016 at 4:40:35 PM

Latest Report: Jun 29, 2016 at 3:50 PM


Visibility: N/A

Pressure: 29.95 "Hg

Humidity: 35%

Dew Point: 55 °F

Location of MilanLocation

Past Weather in Milan — Graph

°F

Milan Temperature Yesterday

Maximum temperature yesterday: 86 °F (at 5:50 PM)
Minimum temperature yesterday: 68 °F (at 4:50 AM)
Average temperature yesterday: 77 °F

High & Low Weather Summary for the Past Weeks

 TemperatureHumidityPressure
High91 °F (Jun 24, 2:50 PM)100% (Jun 14, 11:50 PM)30.21 "Hg (Jun 14, 11:50 PM)
Low55 °F (Jun 20, 5:20 AM)25% (Jun 27, 5:50 PM)29.47 "Hg (Jun 14, 6:20 PM)
Average74 °F62%29.94 "Hg
* Reported Jun 14 3:20 PM — Jun 29 3:20 PM, Milan, Weather by CustomWeather, © 2016

Note: Actual official high and low records may vary slightly from our data, if they occured in-between our weather recording intervals... More about our weather records

Advertising

Milan Weather History for the Previous 24 Hours

Scroll right to see more
 ConditionsComfort  
Time TempWeatherWind HumidityBarometerVisibility
3:20 PM
Wed, Jun 29
86 °FPassing clouds.6 mph35%29.95 "HgN/A
2:50 PM84 °FPassing clouds.6 mph37%29.98 "HgN/A
2:20 PM84 °FPassing clouds.8 mph35%29.98 "HgN/A
1:50 PM84 °FPassing clouds.7 mph43%29.98 "HgN/A
1:20 PM82 °FPassing clouds.7 mph42%29.98 "HgN/A
12:50 PM82 °FSunny.7 mph42%30.01 "Hg10 mi
12:20 PM82 °FSunny.6 mph42%30.01 "Hg10 mi
11:50 AM81 °FPassing clouds.6 mph45%30.01 "HgN/A
11:20 AM81 °FPassing clouds.6 mph42%30.01 "HgN/A
10:50 AM79 °FPassing clouds.6 mph42%30.04 "HgN/A
10:20 AM79 °FPassing clouds.6 mph48%30.04 "HgN/A
9:50 AM77 °FPassing clouds.7 mph51%30.04 "HgN/A
9:20 AM75 °FPassing clouds.7 mph54%30.04 "HgN/A
8:50 AM75 °FPassing clouds.3 mph54%30.04 "HgN/A
8:20 AM73 °FScattered clouds.2 mph61%30.01 "HgN/A
7:50 AM73 °FScattered clouds.5 mph61%30.01 "HgN/A
7:20 AM72 °FScattered clouds.3 mph65%30.01 "HgN/A
6:50 AM72 °FScattered clouds.No wind65%30.01 "HgN/A
6:20 AM72 °FPassing clouds.No wind61%30.01 "HgN/A
5:50 AM70 °FPassing clouds.3 mph69%30.01 "HgN/A
5:20 AM72 °FPassing clouds.1 mph61%30.01 "HgN/A
4:50 AM70 °FPassing clouds.2 mph64%29.98 "HgN/A
4:20 AM70 °FPassing clouds.3 mph64%29.98 "HgN/A
3:50 AM70 °FPassing clouds.5 mph64%29.98 "HgN/A
3:20 AM72 °FClear.7 mph65%29.98 "Hg10 mi
2:50 AM72 °FClear.7 mph69%29.98 "Hg10 mi
2:20 AM73 °FClear.3 mph65%29.98 "Hg10 mi
1:50 AM73 °FPassing clouds.3 mph65%29.98 "HgN/A
1:20 AM75 °FPassing clouds.5 mph61%29.98 "HgN/A
12:50 AM75 °FPassing clouds.5 mph61%30.01 "HgN/A
12:20 AM75 °FPassing clouds.1 mph65%29.98 "HgN/A
11:50 PM
Tue, Jun 28
75 °FPassing clouds.No wind65%29.98 "HgN/A
11:20 PM75 °FPassing clouds.No wind57%29.98 "HgN/A
10:50 PM73 °FPassing clouds.2 mph61%29.98 "HgN/A
10:20 PM75 °FPassing clouds.No wind50%29.98 "HgN/A
9:50 PM75 °FPassing clouds.2 mph54%29.98 "HgN/A
9:20 PM77 °FPassing clouds.2 mph54%29.98 "HgN/A
8:50 PM81 °FPassing clouds.3 mph42%29.95 "HgN/A
8:20 PM82 °FPassing clouds.3 mph42%29.95 "HgN/A
7:50 PM84 °FPassing clouds.5 mph35%29.95 "HgN/A
7:20 PM84 °FPassing clouds.5 mph35%29.95 "HgN/A
6:50 PM84 °FPassing clouds.6 mph37%29.95 "HgN/A
6:20 PM84 °FPassing clouds.5 mph37%29.95 "HgN/A
5:50 PM86 °FScattered clouds.6 mph33%29.95 "HgN/A
5:20 PM84 °FScattered clouds.6 mph40%29.98 "HgN/A
4:50 PM84 °FScattered clouds.7 mph43%29.98 "HgN/A
4:20 PM82 °FScattered clouds.5 mph45%29.98 "HgN/A
Weather by CustomWeather, © 2016

See weather overviewHow to use our weather pages